Вернуться в каталог

STARLINK-3386

АктивенСвязьVLEO
NORAD 51126·PAYLOAD·🇺🇸 United States

Запущен Jan 19, 2022 с Cape Canaveral Space Force Station

Loading…

Ближайшие Пролёты (ближайшие 24 часа)

TLE

СвежийSource: CelesTrak SupGP

Эпоха: Sep 15, 2026, 01:54 UTC

1 51126C 22005Y   26258.07965278  .00018448  00000+0  59369-3 0  2588
2 51126  53.1572 155.1377 0001544  93.6634 229.1095 15.31668772    19

Отслеживайте STARLINK-3386 в реальном времени с AllMySat

Download on the App Store